Showing default

GALAXY 11, 26038

Orbit data source: Space-Track

GALAXY 11, 26038 is a payload satellite owned by Panamsat (US) in GEO that was launched on Wed, 22 Dec 1999 UTC via an ARIANE 44L launch vehicle from the French Guiana (FRGUI). Payload-class satellites include a variety of spacecraft equipped with specific instruments for various scientific and technological missions. These include communications satellites like Starlink; space stations such as the ISS; scientific satellites like the Hubble; Earth observation satellites from companies like Planet Labs, Umbra, and HawkEye 360; GPS; miniature CubeSats for education and research; and military/defense satellites.

Not visible in the next 10 days
Identifier
26038, 1999-071A
Orbit
GEO
Country
Flag of USUS
Related business
Manufacturer
Hughes
Mission
Non-operational Commercial Communications
Bus & Motor
HS-702, R-4D-11-300
Mass
4,484 kg wet, ~4,400 kg dry
Launch date (UTC)
1999-12-22 (26 years ago)
Launch vehicle
ARIANE 44L
Launch site
French Guiana (FRGUI)
Object type
Payload
Rocket body
Debris
Shape & HBR
Box + 2 Pan, 17.0 m
Radar Cross Section
53.041 m², Large (>1 m²)

Expand to show TLE details & history
Last TLE update: 7 hours ago

TLE from 7 hours ago
0 GALAXY 11
1 26038U 99071A   25309.96572392  .00000020  00000-0  00000-0 0  9999
2 26038   6.1755  73.2933 0005018 301.9541  51.6341  0.99022151 94797
Epoch: 2025-11-05T23:10Z
TLE epoch observation values (Epoch: 2025-11-05T23:10:38.546Z)
Latitude
-0.67227°
Longitude
33.83761°
Altitude
36,126.818 km
Speed
3.063 km/s
True Right ascension
04h 27m 42s
True Declination
0° 40' 18"
Sunlit
Object was in daylight at epoch
Visualization orbit readout
Latitude
Unknown
Longitude
Unknown
Altitude
Unknown
Speed
Unknown
Apparent Right ascension
Unknown
Apparent Declination
Unknown
Sunlit
N/A
Visualization observer readout
Local Sidereal Time
02:20:53
Azimuth
Unknown
Elevation
Unknown
Doppler factor
Unknown
Orbital elements
Apogee altitude
36,162.972 km
Perigee altitude
36,120.299 km
Semi-major axis
42,519.773 km
Eccentricity
0.0005
Inclination
6.1755°
RAAN
73.2933°
Arg. of periapsis
301.9541°
True anomaly
51.6792°
Mean anomaly
51.6341°
Eccentric anomaly
51.65665°
Mean motion
0.24755 °/min
Orbital period
1,454.27 mins
BSTAR
0
Loading maneuver chart data...
Computing Atmospheric mass density...
Loading historical data...
Loading historical data...
Loading historical data...
Loading historical data...
Loading historical data...
Loading historical data...
Loading historical data...
Other satellites on launch #71 in the year 1999 (1999-12-22 UTC)

Documentation

Showing up to 5 results
|